Stations météo

réclame
Mon MeteoGroup
Vitoria, Espagne (8080): Température de l'air & dewpoint: 12.06.2018 03:00:00 - 18.06.2018 03:00:00 (CEST)Vitoria, Espagne (8080): Vitesse du vent: 12.06.2018 03:00:00 - 18.06.2018 03:00:00 (CEST)Vitoria, Espagne (8080): Direction du vent: 12.06.2018 03:00:00 - 18.06.2018 03:00:00 (CEST)Vitoria, Espagne (8080): reduced air pressure: 12.06.2018 03:00:00 - 18.06.2018 03:00:00 (CEST)Vitoria, Espagne (8080): visibility: 12.06.2018 03:00:00 - 18.06.2018 03:00:00 (CEST)
Date & Time tt [°C] td [°C] ff [km/h] ff [knt] dd ppp [hPa] vv [km]
18.06.2018 03:00:00 9,2 8,1 0 0 N 1028,1 -
18.06.2018 02:00:00 10,3 9,5 4 2 NW 1027,9 20
18.06.2018 01:00:00 10,4 9,3 4 2 NE 1028,0 -
18.06.2018 00:00:00 11,8 10,5 2 1 NNE 1027,9 -
17.06.2018 23:00:00 13,0 11,1 11 6 NNE 1027,4 25
17.06.2018 22:00:00 14,9 10,9 15 8 NNE 1026,4 -
17.06.2018 21:00:00 17,1 11,4 18 10 NE 1025,5 -
17.06.2018 20:00:00 18,7 12,2 16 9 NE 1024,5 30
17.06.2018 19:00:00 20,3 12,1 22 12 NE 1023,9 -
17.06.2018 18:00:00 21,5 12,2 22 12 NNE 1023,2 -
17.06.2018 17:00:00 21,8 11,7 21 11 NE 1022,8 30
17.06.2018 16:00:00 21,7 13,3 13 7 ENE 1023,0 -
17.06.2018 15:00:00 20,7 12,8 11 6 NE 1023,4 25
17.06.2018 14:00:00 19,9 12,0 8 4 N 1023,8 25
17.06.2018 13:00:00 18,7 12,5 4 2 SSW 1024,3 -
17.06.2018 12:00:00 17,2 10,6 9 5 N 1024,8 -
17.06.2018 11:00:00 16,4 11,3 11 6 N 1025,0 20
17.06.2018 10:00:00 15,6 12,4 4 2 ENE 1024,9 -
17.06.2018 09:00:00 14,0 12,2 4 2 E 1024,9 15
17.06.2018 08:00:00 13,5 12,1 2 1 NE 1024,4 15
17.06.2018 07:00:00 13,2 11,9 0 0 N 1023,9 -
17.06.2018 06:00:00 12,9 11,8 0 0 N 1023,7 -
17.06.2018 05:00:00 12,5 11,4 0 0 N 1023,7 15
17.06.2018 04:00:00 12,6 11,8 0 0 N 1023,8 -
17.06.2018 03:00:00 12,5 11,7 5 3 SW 1023,9 -
17.06.2018 02:00:00 11,6 10,7 4 2 W 1024,4 15
17.06.2018 01:00:00 12,3 11,0 0 0 N 1024,4 -
17.06.2018 00:00:00 12,0 10,9 9 5 NE 1024,2 -
16.06.2018 23:00:00 12,2 10,8 9 5 N 1024,1 15
16.06.2018 22:00:00 14,0 11,3 13 7 NNE 1022,6 -
16.06.2018 21:00:00 16,3 11,1 18 10 N 1021,4 -
16.06.2018 20:00:00 17,8 11,8 24 13 NNE 1020,6 25
16.06.2018 19:00:00 19,2 12,1 26 14 NNE 1019,5 -
16.06.2018 18:00:00 20,3 13,2 22 12 NNE 1018,8 -
16.06.2018 17:00:00 20,4 13,0 16 9 NNE 1018,7 25
16.06.2018 16:00:00 20,5 13,5 21 11 NNE 1019,0 -
16.06.2018 15:00:00 19,7 13,1 15 8 NE 1019,2 20
16.06.2018 14:00:00 18,9 12,5 11 6 NNE 1019,7 20
16.06.2018 13:00:00 17,9 11,6 11 6 NNW 1019,8 -
16.06.2018 12:00:00 16,5 13,2 15 8 NE 1020,2 -
16.06.2018 11:00:00 16,8 13,3 15 8 ENE 1019,7 15
16.06.2018 10:00:00 15,5 13,3 9 5 ENE 1019,8 -
16.06.2018 09:00:00 14,6 13,3 9 5 N 1019,6 8
16.06.2018 08:00:00 14,1 13,3 5 3 ENE 1019,3 12
16.06.2018 07:00:00 13,6 13,0 4 2 NE 1019,3 -
16.06.2018 06:00:00 13,6 13,2 5 3 N 1019,2 -
16.06.2018 05:00:00 13,9 13,3 0 0 N 1018,9 10
16.06.2018 04:00:00 14,1 13,3 4 2 W 1019,4 -
16.06.2018 03:00:00 14,3 13,5 2 1 W 1019,3 -
16.06.2018 02:00:00 14,6 14,0 8 4 N 1019,8 9
16.06.2018 01:00:00 14,9 14,3 0 0 N 1020,2 -
16.06.2018 00:00:00 15,3 14,3 5 3 N 1020,1 -
15.06.2018 23:00:00 15,2 14,6 8 4 ENE 1020,2 10
15.06.2018 22:00:00 15,5 14,4 11 6 NE 1019,7 -
15.06.2018 21:00:00 16,1 14,5 13 7 NE 1019,6 -
15.06.2018 20:00:00 16,3 14,3 15 8 N 1019,4 9
15.06.2018 19:00:00 17,2 14,7 15 8 NNE 1018,9 -
15.06.2018 18:00:00 17,5 14,4 18 10 NNE 1018,9 -
15.06.2018 17:00:00 17,5 14,6 22 12 NNE 1019,1 10
15.06.2018 16:00:00 18,2 14,5 15 8 N 1018,9 -
15.06.2018 15:00:00 20,0 15,1 11 6 N 1018,1 15
15.06.2018 14:00:00 19,3 14,4 9 5 NNE 1018,3 15
15.06.2018 13:00:00 19,2 14,3 11 6 ENE 1018,4 -
15.06.2018 12:00:00 16,8 13,3 16 9 NE 1019,0 -
15.06.2018 11:00:00 16,7 12,6 9 5 E 1019,0 12
15.06.2018 10:00:00 15,1 11,7 5 3 E 1019,3 -
15.06.2018 09:00:00 12,2 11,1 4 2 ENE 1019,9 10
15.06.2018 08:00:00 9,4 8,8 0 0 N 1020,6 8
15.06.2018 07:00:00 6,9 6,5 4 2 E 1021,0 -
15.06.2018 06:00:00 7,2 6,8 5 3 ENE 1020,7 -
15.06.2018 05:00:00 7,3 6,9 0 0 N 1020,8 15
15.06.2018 04:00:00 8,3 7,7 4 2 SSW 1021,0 -
15.06.2018 03:00:00 8,7 8,2 0 0 N 1021,1 -
15.06.2018 02:00:00 9,3 8,4 0 0 N 1021,2 20
15.06.2018 01:00:00 10,7 9,8 8 4 NE 1021,0 -
15.06.2018 00:00:00 12,0 11,1 4 2 E 1020,8 -
14.06.2018 23:00:00 12,2 11,1 11 6 NNE 1020,8 25
14.06.2018 22:00:00 13,9 11,4 9 5 ENE 1020,0 -
14.06.2018 21:00:00 16,8 11,4 11 6 NE 1019,3 -
14.06.2018 20:00:00 18,8 10,3 16 9 NNE 1018,8 25
14.06.2018 19:00:00 19,3 11,2 18 10 NNE 1018,3 -
14.06.2018 18:00:00 19,5 12,1 18 10 NE 1018,7 -
14.06.2018 17:00:00 19,1 12,0 13 7 NE 1019,0 20
14.06.2018 16:00:00 18,5 10,7 15 8 NE 1019,5 -
14.06.2018 15:00:00 17,6 11,0 13 7 NE 1020,0 20
14.06.2018 14:00:00 17,9 11,6 16 9 NNE 1020,0 20
14.06.2018 13:00:00 15,3 10,1 15 8 N 1021,0 -
14.06.2018 12:00:00 15,0 11,3 9 5 NE 1020,9 -
14.06.2018 11:00:00 14,9 11,0 8 4 NE 1020,8 12
14.06.2018 10:00:00 13,7 10,8 0 0 N 1020,9 -
14.06.2018 09:00:00 12,2 10,1 0 0 N 1021,2 9
14.06.2018 08:00:00 11,3 10,7 4 2 SW 1021,3 8
14.06.2018 07:00:00 11,0 10,2 0 0 N 1021,4 -
14.06.2018 06:00:00 11,0 10,1 4 2 E 1021,1 -
14.06.2018 05:00:00 11,0 10,2 0 0 N 1021,5 10
14.06.2018 04:00:00 10,7 10,1 0 0 N 1022,0 -
14.06.2018 03:00:00 10,0 9,5 0 0 N 1022,5 -
14.06.2018 02:00:00 9,5 8,9 0 0 N 1023,1 10
14.06.2018 01:00:00 9,6 8,5 0 0 N 1023,3 -
14.06.2018 00:00:00 10,7 9,5 2 1 SE 1023,5 -
13.06.2018 23:00:00 10,7 9,2 2 1 NE 1023,2 12
13.06.2018 22:00:00 11,5 9,5 9 5 NE 1022,6 -
13.06.2018 21:00:00 14,8 9,7 9 5 N 1021,5 -
13.06.2018 20:00:00 16,5 9,7 13 7 NNW 1021,1 20
13.06.2018 19:00:00 16,6 9,9 15 8 N 1021,2 -
13.06.2018 18:00:00 16,9 10,5 18 10 NNE 1021,2 -
13.06.2018 17:00:00 16,9 11,3 18 10 NNE 1021,3 15
13.06.2018 16:00:00 16,3 10,9 13 7 N 1021,6 -
13.06.2018 15:00:00 15,0 10,5 22 12 NNW 1022,0 25
13.06.2018 14:00:00 14,9 10,8 15 8 N 1022,1 25
13.06.2018 13:00:00 16,3 10,0 18 10 NNW 1021,3 -
13.06.2018 12:00:00 15,6 10,2 24 13 NW 1021,5 -
13.06.2018 11:00:00 14,7 9,7 24 13 NNW 1021,6 25
13.06.2018 10:00:00 14,0 9,7 11 6 NNW 1021,7 -
13.06.2018 09:00:00 13,5 10,1 15 8 WNW 1021,8 20
13.06.2018 08:00:00 13,0 9,9 13 7 NNW 1021,5 20
13.06.2018 07:00:00 12,9 10,2 16 9 NW 1021,1 -
13.06.2018 06:00:00 13,2 10,2 16 9 NW 1021,0 -
13.06.2018 05:00:00 13,3 10,3 26 14 NW 1021,1 15
13.06.2018 04:00:00 13,7 10,9 15 8 NW 1020,9 -
13.06.2018 03:00:00 13,5 10,7 15 8 NW 1021,1 -
13.06.2018 02:00:00 13,5 10,6 15 8 NNW 1021,0 15
13.06.2018 01:00:00 13,4 10,7 16 9 NW 1020,9 -
13.06.2018 00:00:00 13,6 10,9 15 8 NW 1020,8 -
12.06.2018 23:00:00 13,9 11,3 18 10 NW 1020,5 15
12.06.2018 22:00:00 14,4 11,4 16 9 NNW 1019,9 -
12.06.2018 21:00:00 15,1 11,1 18 10 NNW 1019,1 -
12.06.2018 20:00:00 16,1 11,3 21 11 NW 1018,5 25
12.06.2018 19:00:00 16,8 11,1 18 10 NNW 1017,8 -
12.06.2018 18:00:00 17,4 11,4 29 16 NNW 1017,4 -
12.06.2018 17:00:00 17,2 11,5 29 16 NW 1016,9 25
12.06.2018 16:00:00 18,3 12,7 31 17 NNW 1016,2 -
12.06.2018 15:00:00 18,5 12,1 34 18 NW 1015,5 25
12.06.2018 14:00:00 19,0 13,2 31 17 NW 1015,6 20
12.06.2018 13:00:00 18,0 13,9 22 12 WNW 1015,7 -
12.06.2018 12:00:00 15,8 12,6 16 9 W 1015,5 -
12.06.2018 11:00:00 14,6 12,6 22 12 WNW 1015,2 10
12.06.2018 10:00:00 14,3 12,5 22 12 WNW 1014,8 -
12.06.2018 09:00:00 14,9 12,5 21 11 WNW 1013,8 15
12.06.2018 08:00:00 13,5 12,9 11 6 SSW 1013,7 10
12.06.2018 07:00:00 12,7 11,9 8 4 SW 1013,6 -
12.06.2018 06:00:00 12,3 11,7 9 5 SSW 1013,2 -
12.06.2018 05:00:00 11,9 11,4 5 3 SW 1013,7 8
12.06.2018 04:00:00 11,0 10,7 5 3 S 1014,0 -
12.06.2018 03:00:00 9,8 9,5 0 0 N 1015,0 -

tt = Température de l'air
td = dewpoint
ff = Vitesse du vent
dd = Direction du vent
ppp = reduced air pressure
vv = visibility

stations d'obs. à proximité